Вернуться в каталог

CZ-6A DEB

АктивенSSO
NORAD 54462·DEBRIS·🇨🇳 China

Запущен Nov 11, 2022 с Taiyuan Satellite Launch Center

Loading…

Ближайшие Пролёты (ближайшие 24 часа)

TLE

СвежийSource: Space-Track

Эпоха: Sep 14, 2026, 07:28 UTC

1 54462U 22151GN  26257.31156581  .00002804  00000-0  14380-2 0  9996
2 54462  98.7094 216.1405 0154292  53.6184 307.9109 14.10212066196322

Отслеживайте CZ-6A DEB в реальном времени с AllMySat

Download on the App Store